This demonstration page uses our WeatherBlox Daily Observations layout. Learn more.

Left ArrowRight Arrow

40.92945, -100.16068

Hourly Observations for December 19, 2020

Temp ( °F °C ) Dew Point ( °F °C ) Humidity (%) Winds ( mph kmh ) Pressure ( in mb ) Visibility ( mi km ) Precip ( " mm )
12:15 am 00:15 Clear 24 -4.6 20 -6.5 87 87 NW 9 15 30.29 1026 10 16.0934 0 0
12:35 am 00:35 Clear 22 -5.5 19 -7.1 89 89 NW 12 19 30.3 1026 10 16.0934 0 0
12:55 am 00:55 Clear 24 -4.7 20 -6.5 87 87 WNW 9 15 30.29 1026 10 16.0934 0 0
1:15 am 01:15 Clear 23 -4.9 20 -6.8 87 87 NW 8 13 30.29 1026 10 16.0934 0 0
1:35 am 01:35 Clear 23 -5.1 20 -6.9 87 87 WNW 7 11 30.29 1026 10 16.0934 0 0
1:55 am 01:55 Clear 22 -5.6 19 -7.3 88 88 WNW 7 11 30.28 1026 10 16.0934 0 0
2:15 am 02:15 Clear 20 -6.6 18 -8 90 90 NW 7 11 30.3 1026 10 16.0934 0 0
2:35 am 02:35 Clear 19 -7.3 16 -8.7 90 90 NW 7 11 30.31 1026 10 16.0934 0 0
2:55 am 02:55 Clear 19 -7.2 17 -8.6 90 90 NW 6 9 30.31 1026 10 16.0934 0 0
3:15 am 03:15 Clear 20 -6.6 17 -8.2 89 89 WNW 12 19 30.31 1026 10 16.0934 0 0
3:35 am 03:35 Clear 20 -6.5 17 -8.2 88 88 NW 8 13 30.3 1026 10 16.0934 0 0
3:55 am 03:55 Clear 20 -6.5 18 -8 89 89 NNW 9 15 30.29 1026 10 16.0934 0 0
4:15 am 04:15 Clear 19 -7.1 16 -8.8 88 88 NW 6 9 30.3 1026 10 16.0934 0 0
4:35 am 04:35 Clear 18 -8 15 -9.5 89 89 Calm 30.3 1026 10 16.0934 0 0
4:55 am 04:55 Clear 17 -8.2 14 -9.9 88 88 Calm 30.3 1026 10 16.0934 0 0
5:15 am 05:15 Clear 16 -8.8 14 -10.2 90 90 WNW 5 7 30.31 1026 10 16.0934 0 0
5:35 am 05:35 Clear 17 -8.4 15 -9.7 90 90 W 3 6 30.29 1026 10 16.0934 0 0
5:55 am 05:55 Clear 15 -9.3 13 -10.6 90 90 W 8 13 30.3 1026 10 16.0934 0 0
6:15 am 06:15 Clear 15 -9.4 13 -10.8 90 90 WSW 9 15 30.31 1027 10 16.0934 0 0
6:35 am 06:35 Clear 17 -8.6 14 -10 90 90 WSW 5 7 30.31 1026 10 16.0934 0 0
6:55 am 06:55 Clear 16 -8.9 14 -10.2 90 90 W 5 7 30.3 1026 10 16.0934 0 0
7:15 am 07:15 Clear 17 -8.6 14 -9.8 91 91 Calm 30.3 1026 10 16.0934 0 0
7:35 am 07:35 Clear 16 -9 14 -10.2 91 91 NW 5 7 30.31 1026 10 16.0934 0 0
7:55 am 07:55 Clear 15 -9.7 12 -10.9 91 91 W 5 7 30.32 1027 10 16.0934 0 0
8:15 am 08:15 Sunny 15 -9.2 13 -10.5 90 90 Calm 30.3 1026 10 16.0934 0 0
8:35 am 08:35 Sunny 16 -9.1 13 -10.3 91 91 Calm 30.3 1026 10 16.0934 0 0
8:55 am 08:55 Sunny 17 -8.3 15 -9.7 90 90 Calm 30.28 1025 10 16.0934 0 0
9:15 am 09:15 Sunny 17 -8.1 15 -9.5 90 90 Calm 30.27 1025 10 16.0934 0 0
9:35 am 09:35 Sunny 19 -7 17 -8.4 90 90 Calm 30.26 1025 10 16.0934 0 0
9:55 am 09:55 Sunny 21 -5.9 19 -7.5 89 89 Calm 30.25 1024 10 16.0934 0 0
10:15 am 10:15 Sunny 23 -4.8 20 -6.9 85 85 Calm 30.23 1024 10 16.0934 0 0
10:35 am 10:35 Sunny 25 -3.9 20 -6.4 83 83 Calm 30.22 1023 10 16.0934 0 0
10:55 am 10:55 Sunny 28 -2.3 22 -5.3 80 80 Calm 30.19 1022 10 16.0934 0 0
11:15 am 11:15 Sunny 31 -0.3 24 -4.5 74 74 S 3 6 30.16 1021 10 16.0934 0 0
11:35 am 11:35 Sunny 36 2.2 27 -3 69 69 S 3 6 30.14 1020 10 16.0934 0 0
11:55 am 11:55 Sunny 38 3.1 26 -3.2 64 64 Calm 30.12 1020 10 16.0934 0 0
12:15 pm 12:15 Sunny 38 3.2 28 -2.4 67 67 SW 10 17 30.1 1019 10 16.0934 0 0
12:35 pm 12:35 Sunny 38 3.6 28 -2.2 66 66 SW 8 13 30.07 1018 10 16.0934 0 0
12:55 pm 12:55 Sunny 39 4 29 -1.8 66 66 SSW 8 13 30.06 1018 10 16.0934 0 0
1:15 pm 13:15 Sunny 39 3.7 29 -1.8 68 68 SSW 9 15 30.05 1018 10 16.0934 0 0
1:35 pm 13:35 Sunny 39 3.7 29 -1.7 68 68 SW 13 20 30.04 1017 10 16.0934 0 0
1:55 pm 13:55 Sunny 39 3.7 29 -1.7 68 68 SSW 13 20 30.03 1017 10 16.0934 0 0
2:15 pm 14:15 Sunny 39 3.7 29 -1.6 69 69 SSW 13 20 30.02 1017 10 16.0934 0 0
2:35 pm 14:35 Sunny 39 4 29 -1.5 68 68 SSW 12 19 30 1016 10 16.0934 0 0
2:55 pm 14:55 Sunny 40 4.2 30 -1.2 68 68 S 10 17 29.98 1015 10 16.0934 0 0
3:15 pm 15:15 Sunny 40 4.7 30 -1.1 66 66 SSW 8 13 29.97 1015 10 16.0934 0 0
3:35 pm 15:35 Sunny 40 4.6 31 -0.8 68 68 S 9 15 29.97 1015 10 16.0934 0 0
3:55 pm 15:55 Sunny 40 4.7 31 -0.7 68 68 SSW 8 13 29.97 1015 10 16.0934 0 0
4:15 pm 16:15 Sunny 41 4.8 31 -0.6 68 68 SSW 10 17 29.97 1015 10 16.0934 0 0
4:35 pm 16:35 Sunny 39 4 31 -0.6 72 72 SSW 8 13 29.98 1015 10 16.0934 0 0
4:55 pm 16:55 Sunny 38 3.4 31 -0.7 75 75 S 7 11 29.97 1015 10 16.0934 0 0
5:15 pm 17:15 Clear 37 2.8 31 -0.8 77 77 S 6 9 29.97 1015 10 16.0934 0 0
5:35 pm 17:35 Clear 36 2.1 30 -1 80 80 S 8 13 29.98 1015 10 16.0934 0 0
5:55 pm 17:55 Clear 39 3.7 31 -0.7 73 73 SSW 10 17 29.95 1014 10 16.0934 0 0
6:15 pm 18:15 Clear 40 4.4 31 -0.7 70 70 SSW 13 20 29.94 1014 10 16.0934 0 0
6:35 pm 18:35 Clear 40 4.2 31 -0.6 71 71 SW 14 22 29.95 1014 10 16.0934 0 0
6:55 pm 18:55 Clear 39 4.1 31 -0.6 72 72 SW 12 19 29.95 1014 10 16.0934 0 0
7:15 pm 19:15 Clear 39 4.1 30 -1 70 70 WSW 12 19 29.95 1014 10 16.0934 0 0
7:35 pm 19:35 Clear 38 3.6 29 -1.5 70 70 WSW 10 17 29.96 1015 10 16.0934 0 0
7:55 pm 19:55 Clear 38 3.1 29 -1.9 70 70 W 10 17 29.98 1015 10 16.0934 0 0
8:15 pm 20:15 Clear 37 2.5 28 -2 73 73 W 9 15 29.98 1015 10 16.0934 0 0
8:35 pm 20:35 Clear 35 1.5 28 -2.1 77 77 NW 7 11 29.99 1016 10 16.0934 0 0
8:55 pm 20:55 Clear 36 2 28 -2.1 75 75 WNW 7 11 30 1016 10 16.0934 0 0
9:15 pm 21:15 Clear 36 2 28 -2 75 75 WNW 9 15 30 1016 10 16.0934 0 0
9:35 pm 21:35 Clear 36 2 28 -2.2 74 74 WNW 9 15 30 1016 10 16.0934 0 0
9:55 pm 21:55 Clear 34 1.3 28 -2.2 78 78 WNW 9 15 30 1016 10 16.0934 0 0
10:15 pm 22:15 Clear 34 1.2 28 -2.3 78 78 WNW 12 19 30.02 1017 10 16.0934 0 0
10:35 pm 22:35 Clear 35 1.5 28 -2.4 76 76 WNW 12 19 30.03 1017 10 16.0934 0 0
10:55 pm 22:55 Clear 34 1.1 27 -2.6 77 77 WNW 10 17 30.04 1017 10 16.0934 0 0
11:15 pm 23:15 Clear 33 0.6 27 -2.7 79 79 W 14 22 30.05 1018 10 16.0934 0 0
11:35 pm 23:35 Clear 34 1.1 28 -2.5 77 77 WNW 12 19 30.07 1018 10 16.0934 0 0
11:55 pm 23:55 Clear 35 1.6 28 -2.2 76 76 WNW 13 20 30.07 1018 10 16.0934 0 0

Powered by AerisWeather